www.pogodaiklimat.ru

Погода и климат >> Архив погоды >> Буркина-Фасо >> Ouahigouya


ПОГОДА в Ouahigouya

  • Прогноз погоды в Ouahigouya
  • Монитор погоды в Ouahigouya
  • Климат города

АРХИВ ПОГОДЫ в Ouahigouya

Время (UTC), дата Ветер
(напр.,м/с)
 
Видим.   Явления Облачность Т
(С)
Тd
(С)
f
(%)
Тe
(С)
Тes
(С)
Комфортность P
(гПа)
Po
(гПа)
Тmin
(С)
Tmax
(С)
R
(мм)
R24
(мм)
S
(см)
06 12.08 З 1 15 км 9/0
[Ac As Ci sp]
+24.4 +23.1 92 +32 +32 очень
душно
1011.6 974.2 +24.4
09 12.08 З 2 15 км 9/0 600 м
[Ci sp]
+27.7 +23.1 76 +37 +46 очень
душно
1012.1 974.7
12 12.08 Ю 2 15 км 9/0
[Ci sp]
+31.4 +22.8 60 +41 +59 опасность
перегрева
1011.9 974.7
15 12.08 Ю 3 15 км 9/4 600 м
[Sc Ac trans Ci sp]
+32.2 +23.0 58 +42 +46 опасность
перегрева
1010.1 972.9
18 12.08 ЮЗ 1 15 км 9/1 600 м
[Sc Ac trans Ci sp]
+31.5 +22.8 60 +41 +41 опасность
перегрева
1009.9 972.6 +33.0
21 12.08 З 1 10 км 9/0
[Ci sp]
+29.4 +23.3 70 +40 +40 очень
душно
1011.1 973.8
00 13.08 ЮЗ 1 10 км 9/0
[Ac As Ci sp]
+27.7 +24.6 83 +39 +39 очень
душно
1010.5 973.4
03 13.08 В 5 10 км гроза без осадков 9/1 1200 м
[Cb cap Ac As Ci sp]
+23.9 +21.8 88 +31 +31 очень
душно
1012.3 974.9
06 13.08 Ю 1 10 км {гроза, дождь} 10/0
[Ac As]
+23.5 +22.0 91 +30 +30 очень
душно
1010.1 972.8 +23.1 2
09 13.08 ЮЗ 3 15 км 9/0
[Ac As Ci sp]
+26.5 +22.3 78 +35 +38 очень
душно
1009.5 972.2
12 13.08 ЮЗ 1 15 км 9/0
[Ac As Ci sp]
+30.2 +21.5 60 +38 +48 очень
душно
1009.4 972.2
15 13.08 ЮЗ 1 15 км 9/0
[Ac As Ci sp]
+30.7 +22.0 60 +39 +45 очень
душно
1008.6 971.3
18 13.08 З 2 15 км 9/0
[Ci sp]
+29.9 +23.2 67 +40 +40 очень
душно
1008.7 971.3 +31.2
21 13.08 ЮЗ 2 10 км 9/0
[Ci sp]
+27.4 +24.0 82 +38 +38 очень
душно
1009.8 972.4
00 14.08 ЮЗ 3 10 км 9/0
[Ci sp]
+26.1 +23.5 86 +35 +35 очень
душно
1009.5 972.3
03 14.08 ЮЗ 3 10 км 9/0
[Ci sp]
+25.6 +23.3 87 +34 +34 очень
душно
1008.2 970.8
06 14.08 ЮЗ 1 10 км 9/0
[Ci sp]
+24.8 +23.5 92 +33 +33 очень
душно
1008.9 971.6 +24.8
09 14.08 ЮЗ 4 15 км 9/0
[Ci sp]
+29.0 +22.4 68 +38 +44 очень
душно
1009.5 972.2
12 14.08 ЮЗ 3 15 км 9/1 600 м
[Sc Ac trans Ci sp]
+31.4 +23.0 61 +42 +51 опасность
перегрева
1009.8 972.6
15 14.08 ЮЗ 3 15 км 9/3 600 м
[Sc Ac trans Ci sp]
+33.1 +22.2 53 +42 +46 опасность
перегрева
1007.9 970.9
21 14.08 ЮВ 1 10 км 9/0
[Ac As Ci sp]
+30.4 +24.2 70 +42 +42 опасность
перегрева
1009.1 972.0
03 15.08 ЮВ 3 10 км 10/0
[Ac As]
+26.0 +23.1 84 +35 +35 очень
душно
1009.0 971.9
09 15.08 ЮВ 2 15 км 9/0
[Ac As Ci sp]
+26.2 +20.2 70 +32 +36 очень
душно
1012.1 974.8
15 15.08 Ю 2 15 км 9/1 600 м
[Sc Ac As Ci sp]
+31.5 +22.2 58 +41 +47 опасность
перегрева
1009.1 972.0
21 15.08 ЮЗ 3 10 км 9/0
[Ci sp]
+28.3 +21.7 67 +36 +36 очень
душно
1011.5 974.0
03 16.08 ЮЗ 2 10 км 9/0
[Ci sp]
+25.7 +21.9 80 +33 +33 очень
душно
1010.8 973.5
06 16.08 ЮЗ 1 15 км 9/0
[Ci sp]
+24.6 +21.7 84 +31 +31 очень
душно
1011.6 974.2 +24.6
09 16.08 ЮЗ 3 15 км 9/0
[Ac trans Ci sp]
+27.7 +21.7 70 +36 +42 очень
душно
1012.8 975.4
12 16.08 ЮЗ 3 15 км 9/1 600 м
[Sc Ac trans Ci sp]
+31.0 +21.6 57 +39 +48 очень
душно
1011.5 974.3
15 16.08 З 2 15 км 9/0
[Ci sp]
+33.0 +20.6 48 +40 +50 очень
душно
1008.8 971.7
18 16.08 З 3 10 км 9/0
[Ci sp]
+32.4 +20.9 51 +40 +40 очень
душно
1008.5 971.3 +33.9
21 16.08 ЮЗ 4 10 км 9/0
[Ac As Ci sp]
+30.2 +22.0 62 +39 +39 очень
душно
1009.1 971.9
00 17.08 ЮЗ 4 10 км 9/0
[Ac As Ci sp]
+29.1 +22.6 68 +38 +38 очень
душно
1008.2 971.2
03 17.08 ЮЗ 4 10 км 9/0
[Ac As Ci sp]
+28.0 +23.0 74 +37 +37 очень
душно
1007.3 970.4
06 17.08 ЮЗ 4 10 км 9/0
[Ci sp]
+26.5 +23.5 84 +36 +36 очень
душно
1007.5 970.5 +26.5
09 17.08 З 4 15 км 9/0
[Ci sp]
+29.2 +23.1 70 +39 +45 очень
душно
1008.0 970.9
12 17.08 З 7 15 км 9/1 600 м
[Sc Ci sp]
+32.6 +23.9 60 +44 +48 опасность
перегрева
1006.5 969.7
15 17.08 С 5 15 км 9/1 600 м
[Sc Ci sp]
+34.6 +23.2 52 +45 +50 опасность
перегрева
1004.7 968.0
18 17.08 З 3 15 км 9/0
[Ci sp]
+34.0 +22.6 51 +43 +43 опасность
перегрева
1004.4 967.6 +35.5
21 17.08 ЮЗ 3 10 км 9/0
[Ci sp]
+31.1 +23.3 63 +42 +42 опасность
перегрева
1005.0 968.2
00 18.08 З 5 10 км 9/0
[Ci sp]
+29.8 +23.1 67 +40 +40 очень
душно
1004.9 968.2
03 18.08 ЮВ 6 10 км 9/0
[Ci sp]
+27.6 +23.9 80 +38 +38 очень
душно
1004.8 968.1
06 18.08 ЮВ 2 15 км 9/0
[Ci sp]
+24.4 +20.5 79 +30 +30 очень
душно
1005.5 968.6 +24.4
09 18.08 ЮВ 5 15 км 10/0
[Ac As]
+26.7 +21.6 74 +34 +36 очень
душно
1006.1 969.0
12 18.08 ЮВ 4 15 км 9/0
[Ac As Ci sp]
+31.2 +21.6 57 +40 +49 очень
душно
1005.6 968.8
15 18.08 ЮЗ 3 15 км 9/1 600 м
[Sc Ac trans Ci sp]
+32.0 +21.9 55 +41 +46 опасность
перегрева
1004.9 968.0
18 18.08 ЮВ 1 15 км в посл. час гроза {дождь} 9/1 600 м
[Sc Ac As Ci sp]
+26.9 +24.9 89 +39 +39 очень
душно
1006.0 968.6 +33.0 9
21 18.08 штиль 0 10 км гроза, ливневой дождь 10/1 1200 м
[Cb cap Ac As]
+24.8 +22.8 89 +33 +33 очень
душно
1009.7 972.1
00 19.08 Ю 3 10 км {гроза, дождь} 10/0
[Ac As]
+24.5 +22.3 88 +32 +32 очень
душно
1008.8 971.5 3

 

Местоположение метеостанции Ouahigouya (Буркина-Фасо): широта 13.57 долгота -2.42 высота над уровнем моря 336 м.

В архиве по умолчанию представлена погода в Ouahigouya за последнюю неделю. Архивные данные за месяц целиком и за предыдущие месяцы, начиная с января 2011 года, Вы можете получить, выбрав интересующий диапазон дат из раскрывающегося списка и нажав кнопку "Ввод!".

Внимание! Время в таблицах - всемирное. Для получения местного времени необходимо прибавить поправку, которая в Ouahigouya равна 0 ч.

Смотрите также архив погоды в соседних городах и на ближайших метеорологических станциях:

Погода в Ouagadougou (Буркина-Фасо) (167 км)
Погода в Dedougou (Буркина-Фасо) (168 км)
Погода в Mopti (Мали) (210 км)
Погода в Boromo (Буркина-Фасо) (210 км)
Погода в San (Мали) (262 км)
Погода в Dori (Буркина-Фасо) (263 км)
Погода в Po (Буркина-Фасо) (302 км)
Погода в Navrongo (Гана) (330 км)
Погода в Bobo-Dioulasso (Буркина-Фасо) (337 км)
Погода в Fada N`Gourma (Буркина-Фасо) (348 км)

Пояснения к столбцам:

Ветер - указаны скорость ветра в м/с - средняя за 10 мин, порывы в срок и между сроками (в фигурных скобках) и направление, откуда дует ветер: С - северный, СВ - северо-восточный, В - восточный, ЮВ - юго-восточный, Ю - южный, ЮЗ - юго-западный, З - западный, СЗ - северо-западный.
Видимость - горизонтальная дальность видимости в метрах или километрах. При видимости от 1 до 10 км при отсутствии осадков обычно наблюдается дымка, при ухудшении видимости до 1 км и менее - туман. В сухую погоду видимость может ухудшаться дымом, пылью или мглою.
Явления - указаны атмосферные явления, наблюдавшиеся в срок или в последний час перед сроком; фигурными скобками обозначены явления, наблюдавшиеся между сроками (за 1-3 часа до срока); квадратными скобками обозначены град или гололедные отложения с указанием их диаметра в мм.
Облачность - указаны через наклонную черту общая и нижняя облачность в баллах и высота нижней границы облаков в метрах; квадратными скобками обозначены формы облаков: Ci - перистые, Cs - перисто-слоистые, Cc - перисто-кучевые, Ac - высококучевые, As - высокослоистые, Sc - слоисто-кучевые, Ns - слоисто-дождевые, Cu - кучевые, Cb - кучево-дождевые. Подробнее классификацию облаков см. в Атласе облаков (PDF).
T - Температура воздуха - температура, измеренная на высоте 2 м над землей.
Td - Температура точки росы - температура, при понижении до которой содержащийся в воздухе водяной пар достигнет насыщения.
f - Относительная влажность воздуха - влажноcть воздуха, измеренная на высоте 2 м над землей.
Te - Эффективная температура - температура, которую ощущает одетый по сезону человек в тени. Характеристика душности погоды. При расчете учитывается влияние влажности воздуха и скорости ветра на теплоощущения человека.
Tes - Эффективная температура на солнце - температура, которую ощущает человек, с поправкой на солнечный нагрев. Характеристика знойности погоды. Зависит от высоты солнца над горизонтом, облачности и скорости ветра. Ночью, в пасмурную погоду, а также при ветре 12 м/с и более поправка равна нулю.
P - Атмосферное давление - приведенное к уровню моря атмосферное давление.
Po - Атмосферное давление - измеренное на уровне метеостанции атмосферное давление.
Tmin - Минимальная температура - минимум температуры воздуха на высоте 2 м над землей.
Tmax - Максимальная температура - максимум температуры воздуха на высоте 2 м над землей.
R - Количество осадков - Количество выпавших осадков за период времени, мм. При наведении курсора мыши на число - период времени, за который выпало указанное количество осадков.
R24 - Количество осадков - Количество выпавших осадков за 24 часа, мм.
S - Снежный покров - Высота снежного покрова, см. При наведении курсора мыши на число - состояние снежного покрова и степень покрытия местности в баллах.